Year,Month,Day,Hour,Minute,Value (Times are PST for temperature in C)
2010,06,26,00,00,10.60
2010,06,26,00,01,10.60
2010,06,26,00,02,10.60
2010,06,26,00,03,10.60
2010,06,26,00,04,10.60
2010,06,26,00,05,10.50
2010,06,26,00,06,10.40
2010,06,26,00,07,10.40
2010,06,26,00,08,10.40
2010,06,26,00,09,10.40
2010,06,26,00,10,10.40
2010,06,26,00,11,10.30
2010,06,26,00,12,10.30
2010,06,26,00,13,10.30
2010,06,26,00,14,10.20
2010,06,26,00,15,10.20
2010,06,26,00,16,10.20
2010,06,26,00,17,10.20
2010,06,26,00,18,10.20
2010,06,26,00,19,10.10
2010,06,26,00,20,10.10
2010,06,26,00,21,10.10
2010,06,26,00,22,10.10
2010,06,26,00,23,10.10
2010,06,26,00,24,10.10
2010,06,26,00,25,10.10
2010,06,26,00,26,10.10
2010,06,26,00,27,10.00
2010,06,26,00,28,9.90
2010,06,26,00,29,9.90
2010,06,26,00,30,9.90
2010,06,26,00,31,9.90
2010,06,26,00,32,9.90
2010,06,26,00,33,9.90
2010,06,26,00,34,9.90
2010,06,26,00,35,9.90
2010,06,26,00,36,9.80
2010,06,26,00,37,9.80
2010,06,26,00,38,9.80
2010,06,26,00,39,9.80
2010,06,26,00,40,9.70
2010,06,26,00,41,9.70
2010,06,26,00,42,9.70
2010,06,26,00,43,9.70
2010,06,26,00,44,9.70
2010,06,26,00,45,9.70
2010,06,26,00,46,9.60
2010,06,26,00,47,9.60
2010,06,26,00,48,9.60
2010,06,26,00,49,9.60
2010,06,26,00,50,9.60
2010,06,26,00,51,9.50
2010,06,26,00,52,9.50
2010,06,26,00,53,9.50
2010,06,26,00,54,9.50
2010,06,26,00,55,9.50
2010,06,26,00,56,9.40
2010,06,26,00,57,9.40
2010,06,26,00,58,9.40
2010,06,26,00,59,9.40
2010,06,26,01,00,9.40
2010,06,26,01,01,9.40
2010,06,26,01,02,9.40
2010,06,26,01,03,9.30
2010,06,26,01,04,9.30
2010,06,26,01,05,9.30
2010,06,26,01,06,9.30
2010,06,26,01,07,9.30
2010,06,26,01,08,9.30
2010,06,26,01,09,9.20
2010,06,26,01,10,9.20
2010,06,26,01,11,9.20
2010,06,26,01,12,9.20
2010,06,26,01,13,9.20
2010,06,26,01,14,9.20
2010,06,26,01,15,9.20
2010,06,26,01,16,9.20
2010,06,26,01,17,9.20
2010,06,26,01,18,9.20
2010,06,26,01,19,9.20
2010,06,26,01,20,9.10
2010,06,26,01,21,9.10
2010,06,26,01,22,9.10
2010,06,26,01,23,9.10
2010,06,26,01,24,9.10
2010,06,26,01,25,9.00
2010,06,26,01,26,9.00
2010,06,26,01,27,9.00
2010,06,26,01,28,9.00
2010,06,26,01,29,9.00
2010,06,26,01,30,8.90
2010,06,26,01,31,8.90
2010,06,26,01,32,8.90
2010,06,26,01,33,8.90
2010,06,26,01,34,8.90
2010,06,26,01,35,8.90
2010,06,26,01,36,8.90
2010,06,26,01,37,8.90
2010,06,26,01,38,8.90
2010,06,26,01,39,8.90
2010,06,26,01,40,8.90
2010,06,26,01,41,8.90
2010,06,26,01,42,8.90
2010,06,26,01,43,8.90
2010,06,26,01,44,8.90
2010,06,26,01,45,8.90
2010,06,26,01,46,8.90
2010,06,26,01,47,8.90
2010,06,26,01,48,8.80
2010,06,26,01,49,8.80
2010,06,26,01,50,8.80
2010,06,26,01,51,8.80
2010,06,26,01,52,8.70
2010,06,26,01,53,8.70
2010,06,26,01,54,8.70
2010,06,26,01,55,8.70
2010,06,26,01,56,8.70
2010,06,26,01,57,8.70
2010,06,26,01,58,8.70
2010,06,26,01,59,8.70
2010,06,26,02,00,8.70
2010,06,26,02,01,8.60
2010,06,26,02,02,8.60
2010,06,26,02,03,8.60
2010,06,26,02,04,8.60
2010,06,26,02,05,8.60
2010,06,26,02,06,8.60
2010,06,26,02,07,8.50
2010,06,26,02,08,8.50
2010,06,26,02,09,8.50
2010,06,26,02,10,8.50
2010,06,26,02,11,8.50
2010,06,26,02,12,8.50
2010,06,26,02,13,8.50
2010,06,26,02,14,8.40
2010,06,26,02,15,8.40
2010,06,26,02,16,8.40
2010,06,26,02,17,8.40
2010,06,26,02,18,8.40
2010,06,26,02,19,8.40
2010,06,26,02,20,8.40
2010,06,26,02,21,8.30
2010,06,26,02,22,8.30
2010,06,26,02,23,8.30
2010,06,26,02,24,8.30
2010,06,26,02,25,8.30
2010,06,26,02,26,8.20
2010,06,26,02,27,8.20
2010,06,26,02,28,8.20
2010,06,26,02,29,8.20
2010,06,26,02,30,8.20
2010,06,26,02,31,8.20
2010,06,26,02,32,8.20
2010,06,26,02,33,8.20
2010,06,26,02,34,8.20
2010,06,26,02,35,8.20
2010,06,26,02,36,8.20
2010,06,26,02,37,8.20
2010,06,26,02,38,8.20
2010,06,26,02,39,8.20
2010,06,26,02,40,8.20
2010,06,26,02,41,8.10
2010,06,26,02,42,8.10
2010,06,26,02,43,8.10
2010,06,26,02,44,8.10
2010,06,26,02,45,8.10
2010,06,26,02,46,8.00
2010,06,26,02,47,8.00
2010,06,26,02,48,8.00
2010,06,26,02,49,8.00
2010,06,26,02,50,8.00
2010,06,26,02,51,8.00
2010,06,26,02,52,7.90
2010,06,26,02,53,7.90
2010,06,26,02,54,7.90
2010,06,26,02,55,7.90
2010,06,26,02,56,7.90
2010,06,26,02,57,7.90
2010,06,26,02,58,7.90
2010,06,26,02,59,7.90
2010,06,26,03,00,7.90
2010,06,26,03,01,7.80
2010,06,26,03,02,7.80
2010,06,26,03,03,7.80
2010,06,26,03,04,7.80
2010,06,26,03,05,7.80
2010,06,26,03,06,7.80
2010,06,26,03,07,7.80
2010,06,26,03,08,7.80
2010,06,26,03,09,7.80
2010,06,26,03,10,7.80
2010,06,26,03,11,7.80
2010,06,26,03,12,7.70
2010,06,26,03,13,7.70
2010,06,26,03,14,7.70
2010,06,26,03,15,7.70
2010,06,26,03,16,7.70
2010,06,26,03,17,7.70
2010,06,26,03,18,7.60
2010,06,26,03,19,7.60
2010,06,26,03,20,7.60
2010,06,26,03,21,7.60
2010,06,26,03,22,7.60
2010,06,26,03,23,7.60
2010,06,26,03,24,7.60
2010,06,26,03,25,7.60
2010,06,26,03,26,7.60
2010,06,26,03,27,7.60
2010,06,26,03,28,7.60
2010,06,26,03,29,7.60
2010,06,26,03,30,7.50
2010,06,26,03,31,7.50
2010,06,26,03,32,7.50
2010,06,26,03,33,7.50
2010,06,26,03,34,7.50
2010,06,26,03,35,7.50
2010,06,26,03,36,7.50
2010,06,26,03,37,7.50
2010,06,26,03,38,7.50
2010,06,26,03,39,7.40
2010,06,26,03,40,7.40
2010,06,26,03,41,7.40
2010,06,26,03,42,7.40
2010,06,26,03,43,7.40
2010,06,26,03,44,7.40
2010,06,26,03,45,7.40
2010,06,26,03,46,7.40
2010,06,26,03,47,7.30
2010,06,26,03,48,7.30
2010,06,26,03,49,7.30
2010,06,26,03,50,7.30
2010,06,26,03,51,7.30
2010,06,26,03,52,7.30
2010,06,26,03,53,7.30
2010,06,26,03,54,7.30
2010,06,26,03,55,7.30
2010,06,26,03,56,7.30
2010,06,26,03,57,7.30
2010,06,26,03,58,7.30
2010,06,26,03,59,7.30
2010,06,26,04,00,7.30
2010,06,26,04,01,7.30
2010,06,26,04,02,7.30
2010,06,26,04,03,7.30
2010,06,26,04,04,7.30
2010,06,26,04,05,7.30
2010,06,26,04,06,7.30
2010,06,26,04,07,7.30
2010,06,26,04,08,7.30
2010,06,26,04,09,7.30
2010,06,26,04,10,7.30
2010,06,26,04,11,7.30
2010,06,26,04,12,7.30
2010,06,26,04,13,7.30
2010,06,26,04,14,7.30
2010,06,26,04,15,7.30
2010,06,26,04,16,7.30
2010,06,26,04,17,7.30
2010,06,26,04,18,7.20
2010,06,26,04,19,7.20
2010,06,26,04,20,7.20
2010,06,26,04,21,7.20
2010,06,26,04,22,7.10
2010,06,26,04,23,7.10
2010,06,26,04,24,7.10
2010,06,26,04,25,7.10
2010,06,26,04,26,7.10
2010,06,26,04,27,7.00
2010,06,26,04,28,7.00
2010,06,26,04,29,7.00
2010,06,26,04,30,7.00
2010,06,26,04,31,7.00
2010,06,26,04,32,7.00
2010,06,26,04,33,7.00
2010,06,26,04,34,6.90
2010,06,26,04,35,6.90
2010,06,26,04,36,6.90
2010,06,26,04,37,6.90
2010,06,26,04,38,6.90
2010,06,26,04,39,6.90
2010,06,26,04,40,6.90
2010,06,26,04,41,6.90
2010,06,26,04,42,6.90
2010,06,26,04,43,6.90
2010,06,26,04,44,6.90
2010,06,26,04,45,6.90
2010,06,26,04,46,6.90
2010,06,26,04,47,6.90
2010,06,26,04,48,6.90
2010,06,26,04,49,6.90
2010,06,26,04,50,6.90
2010,06,26,04,51,6.90
2010,06,26,04,52,6.90
2010,06,26,04,53,6.90
2010,06,26,04,54,6.90
2010,06,26,04,55,6.90
2010,06,26,04,56,6.90
2010,06,26,04,57,6.90
2010,06,26,04,58,6.90
2010,06,26,04,59,6.90
2010,06,26,05,00,6.80
2010,06,26,05,01,6.80
2010,06,26,05,02,6.80
2010,06,26,05,03,6.80
2010,06,26,05,04,6.80
2010,06,26,05,05,6.80
2010,06,26,05,06,6.80
2010,06,26,05,07,6.80
2010,06,26,05,08,6.80
2010,06,26,05,09,6.80
2010,06,26,05,10,6.80
2010,06,26,05,11,6.80
2010,06,26,05,12,6.80
2010,06,26,05,13,6.80
2010,06,26,05,14,6.80
2010,06,26,05,15,6.80
2010,06,26,05,16,6.80
2010,06,26,05,17,6.80
2010,06,26,05,18,6.80
2010,06,26,05,19,6.80
2010,06,26,05,20,6.80
2010,06,26,05,21,6.80
2010,06,26,05,22,6.80
2010,06,26,05,23,6.80
2010,06,26,05,24,6.80
2010,06,26,05,25,6.80
2010,06,26,05,26,6.80
2010,06,26,05,27,6.80
2010,06,26,05,28,6.80
2010,06,26,05,29,6.80
2010,06,26,05,30,6.80
2010,06,26,05,31,6.80
2010,06,26,05,32,6.80
2010,06,26,05,33,6.80
2010,06,26,05,34,6.80
2010,06,26,05,35,6.80
2010,06,26,05,36,6.80
2010,06,26,05,37,6.80
2010,06,26,05,38,6.80
2010,06,26,05,39,6.80
2010,06,26,05,40,6.80
2010,06,26,05,41,6.80
2010,06,26,05,42,6.80
2010,06,26,05,43,6.80
2010,06,26,05,44,6.80
2010,06,26,05,45,6.80
2010,06,26,05,46,6.80
2010,06,26,05,47,6.80
2010,06,26,05,48,6.80
2010,06,26,05,49,6.80
2010,06,26,05,50,6.80
2010,06,26,05,51,6.80
2010,06,26,05,52,6.80
2010,06,26,05,53,6.80
2010,06,26,05,54,6.80
2010,06,26,05,55,6.80
2010,06,26,05,56,6.80
2010,06,26,05,57,6.80
2010,06,26,05,58,6.80
2010,06,26,05,59,6.80
2010,06,26,06,00,6.80
2010,06,26,06,01,6.80
2010,06,26,06,02,6.80
2010,06,26,06,03,6.90
2010,06,26,06,04,6.90
2010,06,26,06,05,6.90
2010,06,26,06,06,6.90
2010,06,26,06,07,7.00
2010,06,26,06,08,7.00
2010,06,26,06,09,7.00
2010,06,26,06,10,7.10
2010,06,26,06,11,7.10
2010,06,26,06,12,7.20
2010,06,26,06,13,7.20
2010,06,26,06,14,7.30
2010,06,26,06,15,7.30
2010,06,26,06,16,7.50
2010,06,26,06,17,7.50
2010,06,26,06,18,7.60
2010,06,26,06,19,7.70
2010,06,26,06,20,7.80
2010,06,26,06,21,7.90
2010,06,26,06,22,8.00
2010,06,26,06,23,8.00
2010,06,26,06,24,8.10
2010,06,26,06,25,8.20
2010,06,26,06,26,8.20
2010,06,26,06,27,8.20
2010,06,26,06,28,8.30
2010,06,26,06,29,8.30
2010,06,26,06,30,8.40
2010,06,26,06,31,8.40
2010,06,26,06,32,8.50
2010,06,26,06,33,8.50
2010,06,26,06,34,8.50
2010,06,26,06,35,8.50
2010,06,26,06,36,8.60
2010,06,26,06,37,8.60
2010,06,26,06,38,8.60
2010,06,26,06,39,8.60
2010,06,26,06,40,8.70
2010,06,26,06,41,8.70
2010,06,26,06,42,8.70
2010,06,26,06,43,8.70
2010,06,26,06,44,8.70
2010,06,26,06,45,8.70
2010,06,26,06,46,8.80
2010,06,26,06,47,8.80
2010,06,26,06,48,8.80
2010,06,26,06,49,8.80
2010,06,26,06,50,8.80
2010,06,26,06,51,8.80
2010,06,26,06,52,8.90
2010,06,26,06,53,8.90
2010,06,26,06,54,9.00
2010,06,26,06,55,9.00
2010,06,26,06,56,9.10
2010,06,26,06,57,9.10
2010,06,26,06,58,9.20
2010,06,26,06,59,9.20
2010,06,26,07,00,9.30
2010,06,26,07,01,9.30
2010,06,26,07,02,9.40
2010,06,26,07,03,9.40
2010,06,26,07,04,9.50
2010,06,26,07,05,9.60
2010,06,26,07,06,9.60
2010,06,26,07,07,9.60
2010,06,26,07,08,9.70
2010,06,26,07,09,9.70
2010,06,26,07,10,9.70
2010,06,26,07,11,9.70
2010,06,26,07,12,9.70
2010,06,26,07,13,9.70
2010,06,26,07,14,9.70
2010,06,26,07,15,9.80
2010,06,26,07,16,9.80
2010,06,26,07,17,9.80
2010,06,26,07,18,9.90
2010,06,26,07,19,9.90
2010,06,26,07,20,9.90
2010,06,26,07,21,10.00
2010,06,26,07,22,10.10
2010,06,26,07,23,10.10
2010,06,26,07,24,10.10
2010,06,26,07,25,10.10
2010,06,26,07,26,10.10
2010,06,26,07,27,10.20
2010,06,26,07,28,10.20
2010,06,26,07,29,10.20
2010,06,26,07,30,10.30
2010,06,26,07,31,10.40
2010,06,26,07,32,10.40
2010,06,26,07,33,10.50
2010,06,26,07,34,10.60
2010,06,26,07,35,10.60
2010,06,26,07,36,10.70
2010,06,26,07,37,10.80
2010,06,26,07,38,10.90
2010,06,26,07,39,10.90
2010,06,26,07,40,10.90
2010,06,26,07,41,11.00
2010,06,26,07,42,11.10
2010,06,26,07,43,11.10
2010,06,26,07,44,11.10
2010,06,26,07,45,11.10
2010,06,26,07,46,11.10
2010,06,26,07,47,11.10
2010,06,26,07,48,11.10
2010,06,26,07,49,11.20
2010,06,26,07,50,11.20
2010,06,26,07,51,11.20
2010,06,26,07,52,11.20
2010,06,26,07,53,11.30
2010,06,26,07,54,11.30
2010,06,26,07,55,11.30
2010,06,26,07,56,11.30
2010,06,26,07,57,11.40
2010,06,26,07,58,11.40
2010,06,26,07,59,11.40
2010,06,26,08,00,11.50
2010,06,26,08,01,11.60
2010,06,26,08,02,11.70
2010,06,26,08,03,11.80
2010,06,26,08,04,12.00
2010,06,26,08,05,12.10
2010,06,26,08,06,12.30
2010,06,26,08,07,12.50
2010,06,26,08,08,12.50
2010,06,26,08,09,12.60
2010,06,26,08,10,12.70
2010,06,26,08,11,12.80
2010,06,26,08,12,12.90
2010,06,26,08,13,13.00
2010,06,26,08,14,13.10
2010,06,26,08,15,13.30
2010,06,26,08,16,13.40
2010,06,26,08,17,13.60
2010,06,26,08,18,13.60
2010,06,26,08,19,13.70
2010,06,26,08,20,13.80
2010,06,26,08,21,13.90
2010,06,26,08,22,14.00
2010,06,26,08,23,14.10
2010,06,26,08,24,14.20
2010,06,26,08,25,14.30
2010,06,26,08,26,14.40
2010,06,26,08,27,14.50
2010,06,26,08,28,14.60
2010,06,26,08,29,14.60
2010,06,26,08,30,14.70
2010,06,26,08,31,14.70
2010,06,26,08,32,14.80
2010,06,26,08,33,14.80
2010,06,26,08,34,14.80
2010,06,26,08,35,14.80
2010,06,26,08,36,14.70
2010,06,26,08,37,14.70
2010,06,26,08,38,14.60
2010,06,26,08,39,14.60
2010,06,26,08,40,14.50
2010,06,26,08,41,14.50
2010,06,26,08,42,14.40
2010,06,26,08,43,14.30
2010,06,26,08,44,14.30
2010,06,26,08,45,14.30
2010,06,26,08,46,14.30
2010,06,26,08,47,14.40
2010,06,26,08,48,14.40
2010,06,26,08,49,14.40
2010,06,26,08,50,14.40
2010,06,26,08,51,14.50
2010,06,26,08,52,14.50
2010,06,26,08,53,14.60
2010,06,26,08,54,14.60
2010,06,26,08,55,14.60
2010,06,26,08,56,14.70
2010,06,26,08,57,14.80
2010,06,26,08,58,14.80
2010,06,26,08,59,14.90
2010,06,26,09,00,15.00
2010,06,26,09,01,15.10
2010,06,26,09,02,15.20
2010,06,26,09,03,15.30
2010,06,26,09,04,15.30
2010,06,26,09,05,15.40
2010,06,26,09,06,15.40
2010,06,26,09,07,15.40
2010,06,26,09,08,15.30
2010,06,26,09,09,15.30
2010,06,26,09,10,15.30
2010,06,26,09,11,15.30
2010,06,26,09,12,15.30
2010,06,26,09,13,15.30
2010,06,26,09,14,15.30
2010,06,26,09,15,15.40
2010,06,26,09,16,15.50
2010,06,26,09,17,15.50
2010,06,26,09,18,15.60
2010,06,26,09,19,15.70
2010,06,26,09,20,15.80
2010,06,26,09,21,15.80
2010,06,26,09,22,15.90
2010,06,26,09,23,15.90
2010,06,26,09,24,16.00
2010,06,26,09,25,16.10
2010,06,26,09,26,16.10
2010,06,26,09,27,16.20
2010,06,26,09,28,16.30
2010,06,26,09,29,16.30
2010,06,26,09,30,16.40
2010,06,26,09,31,16.60
2010,06,26,09,32,16.60
2010,06,26,09,33,16.70
2010,06,26,09,34,16.70
2010,06,26,09,35,16.70
2010,06,26,09,36,16.70
2010,06,26,09,37,16.70
2010,06,26,09,38,16.70
2010,06,26,09,39,16.70
2010,06,26,09,40,16.70
2010,06,26,09,41,16.70
2010,06,26,09,42,16.70
2010,06,26,09,43,16.60
2010,06,26,09,44,16.60
2010,06,26,09,45,16.60
2010,06,26,09,46,16.50
2010,06,26,09,47,16.40
2010,06,26,09,48,16.40
2010,06,26,09,49,16.40
2010,06,26,09,50,16.40
2010,06,26,09,51,16.40
2010,06,26,09,52,16.40
2010,06,26,09,53,16.40
2010,06,26,09,54,16.40
2010,06,26,09,55,16.40
2010,06,26,09,56,16.40
2010,06,26,09,57,16.40
2010,06,26,09,58,16.40
2010,06,26,09,59,16.40
2010,06,26,10,00,16.40
2010,06,26,10,01,16.30
2010,06,26,10,02,16.30
2010,06,26,10,03,16.40
2010,06,26,10,04,16.40
2010,06,26,10,05,16.40
2010,06,26,10,06,16.40
2010,06,26,10,07,16.40
2010,06,26,10,08,16.40
2010,06,26,10,09,16.40
2010,06,26,10,10,16.50
2010,06,26,10,11,16.60
2010,06,26,10,12,16.60
2010,06,26,10,13,16.60
2010,06,26,10,14,16.50
2010,06,26,10,15,16.40
2010,06,26,10,16,16.40
2010,06,26,10,17,16.40
2010,06,26,10,18,16.50
2010,06,26,10,19,16.60
2010,06,26,10,20,16.60
2010,06,26,10,21,16.60
2010,06,26,10,22,16.60
2010,06,26,10,23,16.70
2010,06,26,10,24,16.70
2010,06,26,10,25,16.70
2010,06,26,10,26,16.70
2010,06,26,10,27,16.70
2010,06,26,10,28,16.80
2010,06,26,10,29,16.80
2010,06,26,10,30,16.80
2010,06,26,10,31,16.90
2010,06,26,10,32,16.90
2010,06,26,10,33,16.80
2010,06,26,10,34,16.70
2010,06,26,10,35,16.70
2010,06,26,10,36,16.50
2010,06,26,10,37,16.40
2010,06,26,10,38,16.40
2010,06,26,10,39,16.40
2010,06,26,10,40,16.40
2010,06,26,10,41,16.40
2010,06,26,10,42,16.40
2010,06,26,10,43,16.40
2010,06,26,10,44,16.40
2010,06,26,10,45,16.40
2010,06,26,10,46,16.40
2010,06,26,10,47,16.40
2010,06,26,10,48,16.40
2010,06,26,10,49,16.40
2010,06,26,10,50,16.40
2010,06,26,10,51,16.40
2010,06,26,10,52,16.40
2010,06,26,10,53,16.40
2010,06,26,10,54,16.60
2010,06,26,10,55,16.60
2010,06,26,10,56,16.60
2010,06,26,10,57,16.60
2010,06,26,10,58,16.60
2010,06,26,10,59,16.70
2010,06,26,11,00,16.70
2010,06,26,11,01,16.70
2010,06,26,11,02,16.70
2010,06,26,11,03,16.70
2010,06,26,11,04,16.70
2010,06,26,11,05,16.70
2010,06,26,11,06,16.60
2010,06,26,11,07,16.40
2010,06,26,11,08,16.30
2010,06,26,11,09,16.30
2010,06,26,11,10,16.20
2010,06,26,11,11,16.20
2010,06,26,11,12,16.30
2010,06,26,11,13,16.30
2010,06,26,11,14,16.40
2010,06,26,11,15,16.60
2010,06,26,11,16,16.70
2010,06,26,11,17,16.80
2010,06,26,11,18,17.00
2010,06,26,11,19,17.10
2010,06,26,11,20,17.20
2010,06,26,11,21,17.30
2010,06,26,11,22,17.40
2010,06,26,11,23,17.40
2010,06,26,11,24,17.30
2010,06,26,11,25,17.20
2010,06,26,11,26,17.20
2010,06,26,11,27,17.20
2010,06,26,11,28,17.10
2010,06,26,11,29,17.10
2010,06,26,11,30,17.00
2010,06,26,11,31,17.00
2010,06,26,11,32,17.10
2010,06,26,11,33,17.10
2010,06,26,11,34,17.10
2010,06,26,11,35,17.20
2010,06,26,11,36,17.30
2010,06,26,11,37,17.40
2010,06,26,11,38,17.50
2010,06,26,11,39,17.60
2010,06,26,11,40,17.70
2010,06,26,11,41,17.80
2010,06,26,11,42,18.00
2010,06,26,11,43,18.10
2010,06,26,11,44,18.20
2010,06,26,11,45,18.10
2010,06,26,11,46,17.90
2010,06,26,11,47,17.90
2010,06,26,11,48,17.80
2010,06,26,11,49,17.80
2010,06,26,11,50,17.90
2010,06,26,11,51,17.90
2010,06,26,11,52,17.90
2010,06,26,11,53,17.90
2010,06,26,11,54,17.90
2010,06,26,11,55,17.90
2010,06,26,11,56,18.00
2010,06,26,11,57,18.00
2010,06,26,11,58,17.70
2010,06,26,11,59,17.60
2010,06,26,12,00,17.50
2010,06,26,12,01,17.40
2010,06,26,12,02,17.50
2010,06,26,12,03,17.60
2010,06,26,12,04,17.70
2010,06,26,12,05,17.60
2010,06,26,12,06,17.50
2010,06,26,12,07,17.40
2010,06,26,12,08,17.20
2010,06,26,12,09,17.00
2010,06,26,12,10,16.90
2010,06,26,12,11,16.80
2010,06,26,12,12,16.80
2010,06,26,12,13,16.80
2010,06,26,12,14,16.80
2010,06,26,12,15,16.90
2010,06,26,12,16,17.00
2010,06,26,12,17,17.00
2010,06,26,12,18,17.10
2010,06,26,12,19,17.30
2010,06,26,12,20,17.40
2010,06,26,12,21,17.40
2010,06,26,12,22,17.30
2010,06,26,12,23,17.30
2010,06,26,12,24,17.30
2010,06,26,12,25,17.20
2010,06,26,12,26,17.20
2010,06,26,12,27,17.20
2010,06,26,12,28,17.20
2010,06,26,12,29,17.30
2010,06,26,12,30,17.30
2010,06,26,12,31,17.30
2010,06,26,12,32,17.20
2010,06,26,12,33,17.20
2010,06,26,12,34,17.30
2010,06,26,12,35,17.30
2010,06,26,12,36,17.30
2010,06,26,12,37,17.40
2010,06,26,12,38,17.50
2010,06,26,12,39,17.60
2010,06,26,12,40,17.70
2010,06,26,12,41,17.70
2010,06,26,12,42,17.70
2010,06,26,12,43,17.60
2010,06,26,12,44,17.60
2010,06,26,12,45,17.50
2010,06,26,12,46,17.40
2010,06,26,12,47,17.40
2010,06,26,12,48,17.30
2010,06,26,12,49,17.30
2010,06,26,12,50,17.30
2010,06,26,12,51,17.30
2010,06,26,12,52,17.40
2010,06,26,12,53,17.50
2010,06,26,12,54,17.70
2010,06,26,12,55,17.60
2010,06,26,12,56,17.60
2010,06,26,12,57,17.50
2010,06,26,12,58,17.40
2010,06,26,12,59,17.30
2010,06,26,13,00,17.30
2010,06,26,13,01,17.30
2010,06,26,13,02,17.20
2010,06,26,13,03,17.20
2010,06,26,13,04,17.20
2010,06,26,13,05,17.20
2010,06,26,13,06,17.20
2010,06,26,13,07,17.10
2010,06,26,13,08,17.10
2010,06,26,13,09,17.10
2010,06,26,13,10,17.10
2010,06,26,13,11,17.20
2010,06,26,13,12,17.20
2010,06,26,13,13,17.30
2010,06,26,13,14,17.30
2010,06,26,13,15,17.30
2010,06,26,13,16,17.30
2010,06,26,13,17,17.50
2010,06,26,13,18,17.60
2010,06,26,13,19,17.60
2010,06,26,13,20,17.70
2010,06,26,13,21,17.60
2010,06,26,13,22,17.50
2010,06,26,13,23,17.50
2010,06,26,13,24,17.50
2010,06,26,13,25,17.50
2010,06,26,13,26,17.50
2010,06,26,13,27,17.50
2010,06,26,13,28,17.60
2010,06,26,13,29,17.70
2010,06,26,13,30,17.80
2010,06,26,13,31,17.80
2010,06,26,13,32,17.80
2010,06,26,13,33,17.70
2010,06,26,13,34,17.80
2010,06,26,13,35,17.90
2010,06,26,13,36,18.00
2010,06,26,13,37,18.10
2010,06,26,13,38,18.10
2010,06,26,13,39,18.10
2010,06,26,13,40,18.00
2010,06,26,13,41,17.90
2010,06,26,13,42,17.90
2010,06,26,13,43,17.90
2010,06,26,13,44,17.80
2010,06,26,13,45,17.80
2010,06,26,13,46,17.90
2010,06,26,13,47,17.90
2010,06,26,13,48,17.90
2010,06,26,13,49,17.90
2010,06,26,13,50,17.90
2010,06,26,13,51,18.00
2010,06,26,13,52,18.10
2010,06,26,13,53,18.10
2010,06,26,13,54,18.00
2010,06,26,13,55,17.90
2010,06,26,13,56,17.90
2010,06,26,13,57,17.90
2010,06,26,13,58,18.00
2010,06,26,13,59,18.20
2010,06,26,14,00,18.20
2010,06,26,14,01,18.20
2010,06,26,14,02,18.20
2010,06,26,14,03,18.20
2010,06,26,14,04,18.20
2010,06,26,14,05,18.20
2010,06,26,14,06,18.10
2010,06,26,14,07,18.10
2010,06,26,14,08,18.10
2010,06,26,14,09,18.00
2010,06,26,14,10,18.00
2010,06,26,14,11,18.10
2010,06,26,14,12,18.20
2010,06,26,14,13,18.30
2010,06,26,14,14,18.40
2010,06,26,14,15,18.50
2010,06,26,14,16,18.50
2010,06,26,14,17,18.30
2010,06,26,14,18,18.30
2010,06,26,14,19,18.30
2010,06,26,14,20,18.40
2010,06,26,14,21,18.50
2010,06,26,14,22,18.50
2010,06,26,14,23,18.60
2010,06,26,14,24,18.60
2010,06,26,14,25,18.70
2010,06,26,14,26,18.70
2010,06,26,14,27,18.50
2010,06,26,14,28,18.40
2010,06,26,14,29,18.30
2010,06,26,14,30,18.20
2010,06,26,14,31,18.10
2010,06,26,14,32,18.00
2010,06,26,14,33,18.00
2010,06,26,14,34,18.10
2010,06,26,14,35,18.20
2010,06,26,14,36,18.20
2010,06,26,14,37,18.20
2010,06,26,14,38,18.20
2010,06,26,14,39,18.30
2010,06,26,14,40,18.10
2010,06,26,14,41,18.00
2010,06,26,14,42,18.00
2010,06,26,14,43,17.90
2010,06,26,14,44,17.90
2010,06,26,14,45,18.00
2010,06,26,14,46,18.10
2010,06,26,14,47,18.00
2010,06,26,14,48,17.90
2010,06,26,14,49,17.90
2010,06,26,14,50,17.90
2010,06,26,14,51,17.90
2010,06,26,14,52,17.90
2010,06,26,14,53,17.90
2010,06,26,14,54,17.90
2010,06,26,14,55,17.90
2010,06,26,14,56,17.90
2010,06,26,14,57,17.80
2010,06,26,14,58,17.80
2010,06,26,14,59,17.80
2010,06,26,15,00,17.90
2010,06,26,15,01,18.20
2010,06,26,15,02,18.40
2010,06,26,15,03,18.50
2010,06,26,15,04,18.70
2010,06,26,15,05,18.70
2010,06,26,15,06,18.70
2010,06,26,15,07,18.60
2010,06,26,15,08,18.50
2010,06,26,15,09,18.40
2010,06,26,15,10,18.40
2010,06,26,15,11,18.40
2010,06,26,15,12,18.50
2010,06,26,15,13,18.60
2010,06,26,15,14,18.60
2010,06,26,15,15,18.50
2010,06,26,15,16,18.50
2010,06,26,15,17,18.50
2010,06,26,15,18,18.50
2010,06,26,15,19,18.50
2010,06,26,15,20,18.40
2010,06,26,15,21,18.40
2010,06,26,15,22,18.40
2010,06,26,15,23,18.30
2010,06,26,15,24,18.30
2010,06,26,15,25,18.40
2010,06,26,15,26,18.50
2010,06,26,15,27,18.60
2010,06,26,15,28,18.60
2010,06,26,15,29,18.60
2010,06,26,15,30,18.60
2010,06,26,15,31,18.60
2010,06,26,15,32,18.70
2010,06,26,15,33,18.60
2010,06,26,15,34,18.60
2010,06,26,15,35,18.70
2010,06,26,15,36,18.70
2010,06,26,15,37,18.60
2010,06,26,15,38,18.60
2010,06,26,15,39,18.50
2010,06,26,15,40,18.40
2010,06,26,15,41,18.40
2010,06,26,15,42,18.30
2010,06,26,15,43,18.20
2010,06,26,15,44,18.20
2010,06,26,15,45,18.20
2010,06,26,15,46,18.10
2010,06,26,15,47,18.10
2010,06,26,15,48,17.90
2010,06,26,15,49,17.90
2010,06,26,15,50,17.90
2010,06,26,15,51,17.90
2010,06,26,15,52,17.90
2010,06,26,15,53,17.90
2010,06,26,15,54,18.10
2010,06,26,15,55,17.90
2010,06,26,15,56,17.80
2010,06,26,15,57,17.70
2010,06,26,15,58,17.60
2010,06,26,15,59,17.50
2010,06,26,16,00,17.50
2010,06,26,16,01,17.50
2010,06,26,16,02,17.40
2010,06,26,16,03,17.30
2010,06,26,16,04,17.20
2010,06,26,16,05,17.20
2010,06,26,16,06,17.10
2010,06,26,16,07,17.10
2010,06,26,16,08,17.10
2010,06,26,16,09,17.00
2010,06,26,16,10,16.80
2010,06,26,16,11,16.70
2010,06,26,16,12,16.60
2010,06,26,16,13,16.60
2010,06,26,16,14,16.60
2010,06,26,16,15,16.60
2010,06,26,16,16,16.60
2010,06,26,16,17,16.60
2010,06,26,16,18,16.50
2010,06,26,16,19,16.60
2010,06,26,16,20,16.70
2010,06,26,16,21,16.80
2010,06,26,16,22,16.90
2010,06,26,16,23,16.90
2010,06,26,16,24,17.00
2010,06,26,16,25,17.00
2010,06,26,16,26,16.90
2010,06,26,16,27,16.80
2010,06,26,16,28,16.80
2010,06,26,16,29,16.80
2010,06,26,16,30,16.90
2010,06,26,16,31,17.00
2010,06,26,16,32,16.90
2010,06,26,16,33,16.80
2010,06,26,16,34,16.80
2010,06,26,16,35,16.80
2010,06,26,16,36,16.90
2010,06,26,16,37,16.90
2010,06,26,16,38,16.80
2010,06,26,16,39,16.90
2010,06,26,16,40,16.90
2010,06,26,16,41,16.90
2010,06,26,16,42,16.90
2010,06,26,16,43,16.90
2010,06,26,16,44,16.90
2010,06,26,16,45,16.80
2010,06,26,16,46,16.80
2010,06,26,16,47,16.70
2010,06,26,16,48,16.70
2010,06,26,16,49,16.60
2010,06,26,16,50,16.50
2010,06,26,16,51,16.40
2010,06,26,16,52,16.40
2010,06,26,16,53,16.40
2010,06,26,16,54,16.30
2010,06,26,16,55,16.30
2010,06,26,16,56,16.40
2010,06,26,16,57,16.30
2010,06,26,16,58,16.40
2010,06,26,16,59,16.40
2010,06,26,17,00,16.40
2010,06,26,17,01,16.40
2010,06,26,17,02,16.40
2010,06,26,17,03,16.40
2010,06,26,17,04,16.40
2010,06,26,17,05,16.40
2010,06,26,17,06,16.30
2010,06,26,17,07,16.20
2010,06,26,17,08,16.10
2010,06,26,17,09,16.10
2010,06,26,17,10,16.00
2010,06,26,17,11,15.90
2010,06,26,17,12,15.90
2010,06,26,17,13,15.90
2010,06,26,17,14,16.00
2010,06,26,17,15,16.10
2010,06,26,17,16,16.10
2010,06,26,17,17,16.00
2010,06,26,17,18,15.90
2010,06,26,17,19,15.80
2010,06,26,17,20,15.80
2010,06,26,17,21,15.90
2010,06,26,17,22,15.90
2010,06,26,17,23,15.90
2010,06,26,17,24,16.00
2010,06,26,17,25,16.10
2010,06,26,17,26,16.10
2010,06,26,17,27,16.10
2010,06,26,17,28,16.10
2010,06,26,17,29,16.20
2010,06,26,17,30,16.30
2010,06,26,17,31,16.40
2010,06,26,17,32,16.60
2010,06,26,17,33,16.70
2010,06,26,17,34,16.80
2010,06,26,17,35,16.90
2010,06,26,17,36,17.00
2010,06,26,17,37,17.00